Location: Bodest
(46.3000°N, 22.5667°E)
Time: 09:05:03
(UTC+00:00)

Cosmos 2084 Rocket - Pass Details

Date: 16 October 2021
Orbit: 508 x 671 km, 62.8° (Epoch: 07 December)

Event Time Altitude Azimuth Distance (km) Brightness Sun altitude
Rises 16:20:08 0° 224° (SW) 2,606 7.6 -7.4°
Reaches altitude 10° 16:22:18 10° 226° (SW) 1,720 6.7 -7.8°
Maximum altitude 16:26:08 72° 311° (NW) 538 3.4 -8.5°
Drops below altitude 10° 16:30:01 10° 37° (NE) 1,750 5.5 -9.1°
Enters shadow 16:31:30 - 39° (NE) 2,350 6.1 -9.4°
